Regional Weather Roundup
Issued by NWS

Home | Current Version | Previous Version | Graphics & Text | Print | Product List | Glossary On
Versions: 1 2 3 4 5 6 7 8 9 10 11 12 13 14 15 16 17 18 19 20 21 22 23 24 25 26 27 28 29 30 31 32 33 34 35 36 37 38 39 40 41 42 43 44 45 46 47 48 49 50
000
ASUS43 KLOT 231909
RWRIL

ILLINOIS REGIONAL WEATHER ROUNDUP
NATIONAL WEATHER SERVICE CHICAGO/ROMEOVILLE IL
200 PM CDT SAT SEP 23 2017

NOTE: "FAIR" INDICATES FEW OR NO CLOUDS BELOW 12,000 FEET WITH NO
SIGNIFICANT WEATHER AND/OR OBSTRUCTIONS TO VISIBILITY.

* THESE STATIONS ARE NOT UNDER NWS QUALITY CONTROL. THEY ALSO MAY NOT
  REPORT WEATHER SUCH AS PRECIPITATION OR FOG.

ILZ001-002-007-009-015-016-024-232000-
NORTHWEST ILLINOIS

CITY           SKY/WX    TMP DP  RH WIND       PRES   REMARKS
MOLINE         MOSUNNY   93  63  36 S7        30.03F HX  94
STERLING*      MOSUNNY   92  66  42 VRB6      30.05F HX  94
SAVANNA*       SUNNY     93  64  38 SW6       30.04F HX  95
$$

ILZ003-004-008-010-011-017-018-232000-
NORTH CENTRAL ILLINOIS

CITY           SKY/WX    TMP DP  RH WIND       PRES   REMARKS
ROCKFORD       PTSUNNY   92  63  38 VRB5      30.07F HX  93
FREEPORT*      MOSUNNY   91  63  38 SW5       30.08F HX  91
ROCHELLE*      MOSUNNY   92  64  39 CALM      30.07F HX  93
DE KALB*       MOSUNNY   90  64  42 NW3       30.08F HX  91
PERU*          SUNNY     90  62  39 CALM      30.06F HX  91
$$

ILZ005-006-012>014-019>023-232000-
NORTHEAST ILLINOIS

CITY           SKY/WX    TMP DP  RH WIND       PRES   REMARKS
CHICAGO-OHARE  MOSUNNY   92  61  35 SE6       30.06F HX  92
CHICAGO-MIDWAY MOSUNNY   93  63  36 SE3       30.06F HX  94
AURORA         SUNNY     93  65  39 CALM      30.08F HX  95
LANSING*       SUNNY     91  69  47 SE5       30.08F HX  96
JOLIET*        PTSUNNY   93  65  40 S5        30.07F HX  95
WAUKEGAN       SUNNY     88  69  53 SE10      30.08F HX  92
DUPAGE AIRPORT PTSUNNY   91  65  41 CALM      30.07F HX  93
KANKAKEE*      SUNNY     91  64  40 CALM      30.08F HX  91
WHEELING       MOSUNNY   92  69  47 E7        30.08F HX  97
MORRIS*        SUNNY     93  63  37 SE6       30.06F HX  94
ROMEOVILLE*    SUNNY     91  63  39 SW3       30.07F HX  92
NORTHERLY ISL    N/A     81  69  67 CALM        N/A  HX  84
$$

LMZ740>746-232000-
SOUTHERN LAKE MICHIGAN

STATION/POSITION SKY/WX   TEMP    WIND        PRES    VSBY  WAVE
                          AIR SEA DIR/SP/G                  HT/PER
                          (F)     (DEG/KT/KT) (MB)    (MI)  (FT/S)
SOUTHERN BUOY              73 72  120/  6/  6 1019.1F         0
WILMETTE HARBOR            76 73  110/  8/ 12   N/A           1/ 2
HARRISON CRIB              81     100/ 13/ 13   N/A
BURNHAM HARBOR             82                   N/A
CALUMET HARBOR             80      40/  8/ 10 1018.0F
BURNS HARBOR               80      60/  8/  9 1019.0F
MICHIGAN CITY              77      40/  6/  7   N/A
MICHIGAN CITY 6N           78 75   20/  6/  8   N/A           0
ST. JOSEPH                 77 74  360/  6/  8 1018.6          0
$$

ILZ025>027-034>036-040-047-049-050-058-095>099-232000-
WEST-CENTRAL ILLINOIS

CITY           SKY/WX    TMP DP  RH WIND       PRES   REMARKS
QUINCY         MOSUNNY   91  61  36 SE8       30.03F HX  91
GALESBURG*     MOSUNNY   91  64  39 SE3       30.05F HX  92
MACOMB*        MOSUNNY   93  60  33 S9        30.06F HX  92
JACKSONVILLE*  MOSUNNY   92  63  37 E6        30.04F HX  93
PITTSFIELD*    MOSUNNY   92  65  40 S8        30.05F HAZE    HX  94
$$

ILZ028>032-037-038-041>044-048-051>054-059>061-232000-
CENTRAL ILLINOIS

CITY           SKY/WX    TMP DP  RH WIND       PRES   REMARKS
PONTIAC        PTSUNNY   92  64  38 SE5       30.07F HX  94
BLOOMINGTON    MOSUNNY   90  66  45 E7        30.09F HX  92
DECATUR        MOSUNNY   92  59  33 CALM      30.06F HX  91
PEORIA         SUNNY     91  65  41 MISG      30.06F HX  93
LACON*         MOSUNNY   92  64  39 S5        30.05F HX  94
LINCOLN*       PTSUNNY   93  66  40 E5        30.05F HX  95
SPRINGFIELD    SUNNY     93  64  38 SE9       30.06F HX  94
TAYLORVILLE    MOSUNNY   91  61  36 E3        30.06F HX  90
$$

ILZ033-039-045-046-055>057-062-063-232000-
EAST-CENTRAL ILLINOIS

CITY           SKY/WX    TMP DP  RH WIND       PRES   REMARKS
CHAMPAIGN      MOSUNNY   92  61  35 CALM      30.07F HX  92
RANTOUL*       MOSUNNY   91  67  45 N3        30.07F HX  94
MATTOON        SUNNY     90  63  40 VRB7      30.06F HX  91
PARIS*         SUNNY     91  65  41 NE8       30.07F HX  93
$$

ILZ079-100>102-232000-
SOUTHWEST ILLINOIS

CITY           SKY/WX    TMP DP  RH WIND       PRES   REMARKS
ALTON          PTSUNNY   90  66  45 SE9       30.05F HX  92
BELLEVILLE     SUNNY     92  62  37 CALM      30.02F HX  92
CAHOKIA*       MOSUNNY   94  62  34 NE6       30.03F HX  94
SPARTA*        PTSUNNY   90  64  40 SE6       30.05F HX  91
$$

ILZ064>066-069>071-074>076-080>082-084>086-088>090-092>094-232000-
SOUTH-CENTRAL ILLINOIS

CITY           SKY/WX    TMP DP  RH WIND       PRES   REMARKS
CARBONDALE     SUNNY     88  68  51 SE7       30.03F HX  91
CAIRO*         SUNNY     89  67  48 SE6       30.02F HX  92
EFFINGHAM*     MOSUNNY   93  63  36 NE9       30.07F HX  94
MARION         PTSUNNY   91  64  40 NE8       30.04F HX  93
CENTRALIA*     MOSUNNY   92  65  39 E5        30.04F HX  94
SALEM*         MOSUNNY   90  61  37 CALM      30.05F HX  90
METROPOLIS*    MOSUNNY   90  66  45 CALM      30.03F HX  92
$$

ILZ067-068-072-073-078-083-087-091-232000-
SOUTHEAST ILLINOIS

CITY           SKY/WX    TMP DP  RH WIND       PRES   REMARKS
LAWRENCEVILLE  SUNNY     91  63  39 E10       30.05F HX  92
FLORA*         PTSUNNY   92  62  36 E13G21    30.05F HX  92
FAIRFIELD*     MOSUNNY   89  61  38 CALM      30.04F HX  89
HARRISBURG*    SUNNY     90  64  42 E6        30.04F HX  91
ROBINSON*      MOSUNNY   90  64  42 NE5       30.06F HX  92
CARMI*         MOSUNNY   90  63  40 E6        30.04F HX  91
$$

ABBREVIATIONS USED IN REMARKS
   TC - TEMPERATURE IN CELSIUS
  WCI - WIND CHILL INDEX
   HX - HEAT INDEX
  VSB - VISIBILITY
$$





USA.gov is the U.S. government's official web portal to all federal, state and local government web resources and services.